| time (UTC) | temp F | wind direction | speed MPH | gust MPH | rain 1hr in | rain 24hr in | rain mn in | humidity % | barometer mb |
| 20260505201524 | 55 | 57 | 6.0 | 19.0 | 0.00 | 0.00 | 0.00 | 74 | 1008.6 |
| 20260505201003 | 55 | 57 | 5.0 | 19.0 | 0.00 | 0.00 | 0.00 | 76 | 1008.8 |
| 20260505200502 | 54 | 14 | 11.0 | 19.0 | 0.00 | 0.00 | 0.00 | 75 | 1008.6 |
| 20260505200003 | 55 | 25 | 8.0 | 18.0 | 0.00 | 0.00 | 0.00 | 76 | 1008.7 |
| 20260505195503 | 54 | 42 | 6.0 | 19.0 | 0.00 | 0.00 | 0.00 | 77 | 1008.7 |
| 20260505195024 | 54 | 28 | 9.0 | 19.0 | 0.00 | 0.00 | 0.00 | 78 | 1008.6 |
| 20260505194503 | 55 | 41 | 8.0 | 19.0 | 0.00 | 0.00 | 0.00 | 79 | 1009.1 |
| 20260505194003 | 54 | 36 | 3.0 | 16.0 | 0.00 | 0.00 | 0.00 | 79 | 1008.9 |
| 20260505193503 | 54 | 45 | 5.0 | 17.0 | 0.00 | 0.00 | 0.00 | 79 | 1009.1 |
| 20260505193003 | 54 | 1 | 7.0 | 18.0 | 0.00 | 0.00 | 0.00 | 79 | 1008.9 |
| 20260505192503 | 55 | 21 | 8.0 | 18.0 | 0.00 | 0.00 | 0.00 | 79 | 1009.4 |
| 20260505192002 | 55 | 16 | 9.0 | 17.0 | 0.00 | 0.00 | 0.00 | 80 | 1008.6 |
| 20260505191503 | 55 | 51 | 4.0 | 17.0 | 0.00 | 0.00 | 0.00 | 81 | 1008.5 |
| 20260505191003 | 55 | 354 | 6.0 | 18.0 | 0.00 | 0.00 | 0.00 | 80 | 1008.1 |
| 20260505190502 | 55 | 4 | 5.0 | 19.0 | 0.00 | 0.00 | 0.00 | 80 | 1008.6 |
| 20260505190003 | 55 | 29 | 7.0 | 19.0 | 0.00 | 0.00 | 0.00 | 80 | 1008.6 |
| 20260505185503 | 56 | 19 | 7.0 | 19.0 | 0.00 | 0.00 | 0.00 | 79 | 1008.4 |
| 20260505185003 | 56 | 15 | 7.0 | 19.0 | 0.00 | 0.00 | 0.00 | 80 | 1008.4 |
| 20260505184503 | 56 | 22 | 5.0 | 15.0 | 0.00 | 0.00 | 0.00 | 79 | 1008.2 |
| 20260505184003 | 56 | 358 | 6.0 | 16.0 | 0.00 | 0.00 | 0.00 | 79 | 1008.6 |
| 20260505183503 | 56 | 52 | 6.0 | 16.0 | 0.00 | 0.00 | 0.00 | 78 | 1008.1 |
| 20260505183003 | 57 | 22 | 6.0 | 17.0 | 0.00 | 0.00 | 0.00 | 78 | 1008.0 |
| 20260505182503 | 57 | 32 | 6.0 | 17.0 | 0.00 | 0.00 | 0.00 | 78 | 1008.2 |
| 20260505182003 | 57 | 22 | 8.0 | 15.0 | 0.00 | 0.00 | 0.00 | 78 | 1008.1 |
| 20260505181503 | 57 | 37 | 5.0 | 15.0 | 0.00 | 0.00 | 0.00 | 79 | 1007.8 |
| 20260505181002 | 57 | 31 | 7.0 | 16.0 | 0.00 | 0.00 | 0.00 | 78 | 1007.8 |
| 20260505180523 | 57 | 54 | 5.0 | 16.0 | 0.00 | 0.00 | 0.00 | 79 | 1007.8 |
| 20260505180003 | 57 | 38 | 8.0 | 18.0 | 0.00 | 0.00 | 0.00 | 79 | 1007.9 |
| 20260505175503 | 57 | 34 | 7.0 | 22.0 | 0.00 | 0.00 | 0.00 | 80 | 1008.0 |
| 20260505175024 | 57 | 18 | 8.0 | 22.0 | 0.00 | 0.00 | 0.00 | 79 | 1007.5 |
| 20260505174503 | 57 | 17 | 6.0 | 17.0 | 0.00 | 0.00 | 0.00 | 79 | 1007.8 |
| 20260505174003 | 57 | 19 | 3.0 | 17.0 | 0.00 | 0.00 | 0.00 | 81 | 1007.5 |
| 20260505173503 | 57 | 17 | 7.0 | 22.0 | 0.00 | 0.00 | 0.00 | 80 | 1007.5 |
| 20260505173003 | 57 | 30 | 7.0 | 22.0 | 0.00 | 0.00 | 0.00 | 81 | 1007.5 |
| 20260505172524 | 57 | 54 | 11.0 | 19.0 | 0.00 | 0.00 | 0.00 | 81 | 1007.2 |
| 20260505172003 | 57 | 4 | 7.0 | 18.0 | 0.00 | 0.00 | 0.00 | 81 | 1007.4 |
| 20260505171503 | 57 | 47 | 6.0 | 18.0 | 0.00 | 0.00 | 0.00 | 82 | 1007.0 |
| 20260505171023 | 57 | 36 | 6.0 | 18.0 | 0.00 | 0.00 | 0.00 | 82 | 1007.2 |
| 20260505170503 | 57 | 31 | 8.0 | 21.0 | 0.00 | 0.00 | 0.00 | 82 | 1007.1 |
| 20260505170002 | 57 | 26 | 8.0 | 21.0 | 0.00 | 0.00 | 0.00 | 82 | 1006.7 |
| 20260505165502 | 57 | 48 | 4.0 | 18.0 | 0.00 | 0.00 | 0.00 | 82 | 1007.0 |
| 20260505165003 | 57 | 29 | 4.0 | 17.0 | 0.00 | 0.00 | 0.00 | 82 | 1006.6 |
| 20260505164524 | 57 | 33 | 9.0 | 17.0 | 0.00 | 0.00 | 0.00 | 82 | 1006.7 |
| 20260505164003 | 58 | 43 | 4.0 | 15.0 | 0.00 | 0.00 | 0.00 | 83 | 1006.7 |
| 20260505163503 | 58 | 60 | 6.0 | 13.0 | 0.00 | 0.00 | 0.00 | 83 | 1006.7 |
| 20260505163003 | 58 | 28 | 3.0 | 21.0 | 0.00 | 0.00 | 0.00 | 83 | 1006.7 |
| 20260505162523 | 58 | 89 | 3.0 | 22.0 | 0.00 | 0.00 | 0.00 | 82 | 1006.8 |
| 20260505162003 | 58 | 44 | 8.0 | 22.0 | 0.00 | 0.00 | 0.00 | 82 | 1005.9 |
| 20260505161503 | 59 | 47 | 3.0 | 23.0 | 0.00 | 0.00 | 0.00 | 81 | 1005.9 |
| 20260505161002 | 60 | 5 | 8.0 | 23.0 | 0.00 | 0.00 | 0.00 | 80 | 1005.7 |
| 20260505160503 | 60 | 10 | 7.0 | 23.0 | 0.00 | 0.00 | 0.00 | 81 | 1004.8 |
| 20260505153003 | 63 | 46 | 5.0 | 22.0 | 0.00 | 0.00 | 0.00 | 81 | 1004.5 |
| 20260505152503 | 63 | 357 | 10.0 | 22.0 | 0.00 | 0.00 | 0.00 | 80 | 1004.2 |
| 20260505152003 | 64 | 12 | 9.0 | 21.0 | 0.00 | 0.00 | 0.00 | 79 | 1004.1 |
| 20260505151503 | 67 | 313 | 4.0 | 21.0 | 0.00 | 0.00 | 0.00 | 77 | 1003.9 |
| 20260505151003 | 68 | 18 | 5.0 | 14.0 | 0.00 | 0.00 | 0.00 | 84 | 1003.6 |
| 20260505150503 | 69 | 37 | 4.0 | 13.0 | 0.00 | 0.00 | 0.00 | 85 | 1003.6 |
| 20260505140503 | 68 | 82 | 4.0 | 9.0 | 0.00 | 0.00 | 0.00 | 85 | 1002.4 |
| 20260505125003 | 67 | 62 | 2.0 | 6.0 | 0.00 | 0.00 | 0.00 | 85 | 1002.1 |
| 20260505124503 | 67 | 33 | 1.0 | 7.0 | 0.00 | 0.00 | 0.00 | 85 | 1001.8 |
| 20260505124003 | 67 | 38 | 3.0 | 7.0 | 0.00 | 0.00 | 0.00 | 85 | 1002.2 |
| 20260505123503 | 67 | 84 | 2.0 | 3.0 | 0.00 | 0.00 | 0.00 | 85 | 1001.9 |
| 20260505123002 | 67 | 48 | 1.0 | 3.0 | 0.00 | 0.00 | 0.00 | 85 | 1002.0 |
| 20260505122503 | 67 | 0 | 0.0 | 1.0 | 0.00 | 0.00 | 0.00 | 85 | 1001.7 |
| 20260505122024 | 67 | 0 | 0.0 | 1.0 | 0.00 | 0.00 | 0.00 | 84 | 1001.5 |
| 20260505121503 | 68 | 162 | 0.0 | 1.0 | 0.00 | 0.00 | 0.00 | 84 | 1001.6 |
| 20260505121003 | 68 | 162 | 0.0 | 1.0 | 0.00 | 0.00 | 0.00 | 83 | 1001.4 |
| 20260505120503 | 68 | 0 | 0.0 | 1.0 | 0.00 | 0.00 | 0.00 | 83 | 1001.1 |
| 20260505120003 | 68 | 0 | 0.0 | 1.0 | 0.00 | 0.00 | 0.00 | 82 | 1001.5 |
| 20260505115502 | 68 | 0 | 0.0 | 1.0 | 0.00 | 0.00 | 0.00 | 81 | 1001.2 |
| 20260505115003 | 69 | 320 | 0.0 | 1.0 | 0.00 | 0.00 | 0.00 | 80 | 1001.6 |
| 20260505114503 | 69 | 194 | 0.0 | 1.0 | 0.00 | 0.00 | 0.00 | 79 | 1000.9 |
| 20260505114003 | 69 | 216 | 0.0 | 3.0 | 0.00 | 0.00 | 0.00 | 79 | 1001.1 |
| 20260505113523 | 70 | 0 | 0.0 | 3.0 | 0.00 | 0.00 | 0.00 | 78 | 1000.8 |
| 20260505113003 | 70 | 8 | 2.0 | 3.0 | 0.00 | 0.00 | 0.00 | 78 | 1000.9 |
| 20260505112503 | 70 | 334 | 2.0 | 4.0 | 0.00 | 0.00 | 0.00 | 77 | 1000.7 |
| 20260505112003 | 71 | 212 | 0.0 | 7.0 | 0.00 | 0.00 | 0.00 | 76 | 1000.2 |
| 20260505111503 | 71 | 241 | 1.0 | 7.0 | 0.00 | 0.00 | 0.00 | 75 | 1000.3 |
| 20260505111003 | 71 | 247 | 2.0 | 7.0 | 0.00 | 0.00 | 0.00 | 75 | 1000.1 |
| 20260505110503 | 71 | 248 | 2.0 | 7.0 | 0.00 | 0.00 | 0.00 | 75 | 1000.0 |
| 20260505102003 | 72 | 210 | 4.0 | 10.0 | 0.00 | 0.00 | 0.00 | 75 | 999.0 |
| 20260505101503 | 72 | 256 | 3.0 | 9.0 | 0.00 | 0.00 | 0.00 | 74 | 999.0 |
| 20260505101003 | 72 | 303 | 2.0 | 11.0 | 0.00 | 0.00 | 0.00 | 74 | 999.0 |
| 20260505100503 | 72 | 262 | 3.0 | 11.0 | 0.00 | 0.00 | 0.00 | 74 | 999.0 |
| 20260505100024 | 72 | 268 | 2.0 | 9.0 | 0.00 | 0.00 | 0.00 | 74 | 999.0 |
| 20260505095503 | 72 | 251 | 2.0 | 9.0 | 0.00 | 0.00 | 0.00 | 74 | 999.0 |
| 20260505095003 | 72 | 291 | 2.0 | 9.0 | 0.00 | 0.00 | 0.00 | 74 | 999.0 |
| 20260505094524 | 72 | 267 | 3.0 | 11.0 | 0.00 | 0.00 | 0.00 | 74 | 998.9 |
| 20260505094003 | 72 | 260 | 2.0 | 11.0 | 0.00 | 0.00 | 0.00 | 74 | 999.2 |
| 20260505093503 | 72 | 238 | 1.0 | 8.0 | 0.00 | 0.00 | 0.00 | 74 | 999.2 |
| 20260505093003 | 72 | 238 | 1.0 | 9.0 | 0.00 | 0.00 | 0.00 | 74 | 999.0 |
| 20260505092503 | 72 | 239 | 2.0 | 10.0 | 0.00 | 0.00 | 0.00 | 74 | 999.3 |
| 20260505092024 | 72 | 247 | 2.0 | 10.0 | 0.00 | 0.00 | 0.00 | 74 | 999.2 |
| 20260505091503 | 72 | 199 | 2.0 | 9.0 | 0.00 | 0.00 | 0.00 | 74 | 999.3 |
| 20260505091002 | 72 | 309 | 3.0 | 9.0 | 0.00 | 0.00 | 0.00 | 74 | 999.2 |
| 20260505090503 | 72 | 249 | 2.0 | 8.0 | 0.00 | 0.00 | 0.00 | 74 | 999.4 |
| 20260505090003 | 72 | 287 | 2.0 | 7.0 | 0.00 | 0.00 | 0.00 | 74 | 999.3 |
| 20260505085502 | 72 | 213 | 2.0 | 8.0 | 0.00 | 0.00 | 0.00 | 74 | 999.6 |
| 20260505085002 | 72 | 288 | 1.0 | 8.0 | 0.00 | 0.00 | 0.00 | 75 | 999.6 |
| 20260505084503 | 72 | 229 | 3.0 | 8.0 | 0.00 | 0.00 | 0.00 | 75 | 999.5 |
| 20260505084003 | 72 | 273 | 1.0 | 7.0 | 0.00 | 0.00 | 0.00 | 75 | 999.4 |
| 20260505083502 | 72 | 238 | 2.0 | 8.0 | 0.00 | 0.00 | 0.00 | 75 | 999.7 |
| 20260505083003 | 72 | 63 | 1.0 | 8.0 | 0.00 | 0.00 | 0.00 | 75 | 999.6 |
| 20260505082503 | 72 | 171 | 3.0 | 9.0 | 0.00 | 0.00 | 0.00 | 75 | 999.6 |
| 20260505082003 | 72 | 250 | 2.0 | 9.0 | 0.00 | 0.00 | 0.00 | 75 | 1000.1 |
| 20260505081503 | 72 | 336 | 1.0 | 6.0 | 0.00 | 0.00 | 0.00 | 76 | 1000.2 |
| 20260505081003 | 72 | 276 | 1.0 | 11.0 | 0.00 | 0.00 | 0.00 | 76 | 999.6 |
| 20260505080503 | 72 | 297 | 2.0 | 11.0 | 0.00 | 0.00 | 0.00 | 76 | 999.6 |
| 20260505080003 | 72 | 278 | 1.0 | 7.0 | 0.00 | 0.00 | 0.00 | 75 | 999.9 |
| 20260505075503 | 72 | 289 | 2.0 | 7.0 | 0.00 | 0.00 | 0.00 | 75 | 999.9 |
| 20260505075024 | 72 | 293 | 1.0 | 7.0 | 0.00 | 0.00 | 0.00 | 75 | 999.9 |
| 20260505074503 | 72 | 264 | 2.0 | 8.0 | 0.00 | 0.00 | 0.00 | 75 | 1000.0 |
| 20260505074003 | 72 | 313 | 1.0 | 13.0 | 0.00 | 0.00 | 0.00 | 75 | 1000.0 |
| 20260505073503 | 72 | 280 | 2.0 | 13.0 | 0.00 | 0.00 | 0.00 | 75 | 999.7 |
| 20260505073003 | 72 | 266 | 2.0 | 6.0 | 0.00 | 0.00 | 0.00 | 75 | 999.8 |
| 20260505072503 | 72 | 202 | 2.0 | 14.0 | 0.00 | 0.00 | 0.00 | 75 | 1000.4 |
| 20260505072003 | 72 | 240 | 2.0 | 14.0 | 0.00 | 0.00 | 0.00 | 75 | 1000.3 |
| 20260505071503 | 72 | 166 | 2.0 | 9.0 | 0.00 | 0.00 | 0.00 | 75 | 1000.2 |
| 20260505071003 | 72 | 223 | 1.0 | 9.0 | 0.00 | 0.00 | 0.00 | 75 | 1000.3 |
| 20260505070503 | 72 | 236 | 2.0 | 8.0 | 0.00 | 0.00 | 0.00 | 74 | 1000.3 |
| 20260505070024 | 72 | 227 | 2.0 | 8.0 | 0.00 | 0.00 | 0.00 | 74 | 1000.6 |
| 20260505065503 | 72 | 244 | 2.0 | 8.0 | 0.00 | 0.00 | 0.00 | 74 | 1000.7 |
| 20260505065003 | 72 | 247 | 2.0 | 8.0 | 0.00 | 0.00 | 0.00 | 74 | 1000.7 |
| 20260505064503 | 72 | 268 | 2.0 | 10.0 | 0.00 | 0.00 | 0.00 | 74 | 1000.7 |
| 20260505064003 | 72 | 272 | 3.0 | 10.0 | 0.00 | 0.00 | 0.00 | 74 | 1000.9 |
| 20260505063503 | 72 | 282 | 2.0 | 14.0 | 0.00 | 0.00 | 0.00 | 74 | 1000.8 |
| 20260505063003 | 72 | 169 | 3.0 | 15.0 | 0.00 | 0.00 | 0.00 | 74 | 1000.6 |
| 20260505062502 | 72 | 244 | 2.0 | 15.0 | 0.00 | 0.00 | 0.00 | 74 | 1000.8 |
| 20260505062003 | 72 | 234 | 3.0 | 8.0 | 0.00 | 0.00 | 0.00 | 74 | 1001.0 |
| 20260505061503 | 72 | 157 | 2.0 | 7.0 | 0.00 | 0.00 | 0.00 | 74 | 1000.9 |
| 20260505061003 | 72 | 235 | 2.0 | 9.0 | 0.00 | 0.00 | 0.00 | 73 | 1001.0 |
| 20260505060502 | 72 | 300 | 2.0 | 13.0 | 0.00 | 0.00 | 0.00 | 73 | 1000.9 |
| 20260505060003 | 72 | 209 | 3.0 | 13.0 | 0.00 | 0.00 | 0.00 | 73 | 1001.2 |
| 20260505055503 | 72 | 214 | 2.0 | 9.0 | 0.00 | 0.00 | 0.00 | 73 | 1001.2 |
| 20260505055003 | 72 | 1 | 2.0 | 9.0 | 0.00 | 0.00 | 0.00 | 73 | 1001.1 |
| 20260505054503 | 73 | 114 | 2.0 | 13.0 | 0.00 | 0.00 | 0.00 | 72 | 1001.4 |
| 20260505054003 | 73 | 229 | 2.0 | 13.0 | 0.00 | 0.00 | 0.00 | 72 | 1001.3 |
| 20260505053524 | 73 | 195 | 4.0 | 13.0 | 0.00 | 0.00 | 0.00 | 72 | 1001.3 |
| 20260505053003 | 73 | 249 | 2.0 | 11.0 | 0.00 | 0.00 | 0.00 | 72 | 1001.2 |
| 20260505052503 | 73 | 180 | 2.0 | 10.0 | 0.00 | 0.00 | 0.00 | 72 | 1001.3 |
| 20260505052003 | 73 | 263 | 1.0 | 9.0 | 0.00 | 0.00 | 0.00 | 72 | 1001.4 |
| 20260505051503 | 73 | 156 | 0.0 | 9.0 | 0.00 | 0.00 | 0.00 | 72 | 1001.2 |
| 20260505051003 | 73 | 170 | 3.0 | 10.0 | 0.00 | 0.00 | 0.00 | 72 | 1001.4 |
| 20260505050524 | 73 | 220 | 2.0 | 10.0 | 0.00 | 0.00 | 0.00 | 72 | 1001.4 |
| 20260505041503 | 73 | 180 | 2.0 | 17.0 | 0.00 | 0.00 | 0.00 | 71 | 1002.0 |
| 20260505041003 | 74 | 221 | 1.0 | 17.0 | 0.00 | 0.00 | 0.00 | 70 | 1002.0 |
| 20260505040503 | 74 | 177 | 3.0 | 13.0 | 0.00 | 0.00 | 0.00 | 70 | 1001.9 |
| 20260505040024 | 74 | 152 | 2.0 | 13.0 | 0.00 | 0.00 | 0.00 | 70 | 1002.2 |
| 20260505035502 | 74 | 238 | 3.0 | 13.0 | 0.00 | 0.00 | 0.00 | 70 | 1002.0 |
| 20260505035003 | 74 | 257 | 4.0 | 13.0 | 0.00 | 0.00 | 0.00 | 70 | 1002.3 |
| 20260505034524 | 74 | 157 | 3.0 | 15.0 | 0.00 | 0.00 | 0.00 | 69 | 1002.0 |
| 20260505034003 | 74 | 146 | 3.0 | 15.0 | 0.00 | 0.00 | 0.00 | 69 | 1002.2 |
| 20260505033503 | 74 | 155 | 5.0 | 15.0 | 0.00 | 0.00 | 0.00 | 69 | 1001.8 |
| 20260505033002 | 74 | 151 | 1.0 | 9.0 | 0.00 | 0.00 | 0.00 | 69 | 1002.1 |
| 20260505032502 | 74 | 204 | 2.0 | 14.0 | 0.00 | 0.00 | 0.00 | 69 | 1001.5 |
| 20260505032003 | 75 | 177 | 3.0 | 16.0 | 0.00 | 0.00 | 0.00 | 68 | 1001.8 |
| 20260505031503 | 75 | 175 | 6.0 | 16.0 | 0.00 | 0.00 | 0.00 | 68 | 1001.9 |
| 20260505031003 | 75 | 223 | 4.0 | 13.0 | 0.00 | 0.00 | 0.00 | 68 | 1001.7 |
| 20260505030503 | 75 | 149 | 3.0 | 14.0 | 0.00 | 0.00 | 0.00 | 68 | 1001.8 |
| 20260505030024 | 75 | 48 | 3.0 | 14.0 | 0.00 | 0.00 | 0.00 | 67 | 1001.6 |
| 20260505025502 | 75 | 157 | 4.0 | 16.0 | 0.00 | 0.00 | 0.00 | 67 | 1001.9 |
| 20260505025003 | 75 | 269 | 4.0 | 17.0 | 0.00 | 0.00 | 0.00 | 67 | 1001.3 |
| 20260505024503 | 75 | 181 | 6.0 | 17.0 | 0.00 | 0.00 | 0.00 | 67 | 1001.3 |
| 20260505024003 | 75 | 214 | 2.0 | 11.0 | 0.00 | 0.00 | 0.00 | 67 | 1001.5 |
| 20260505023503 | 76 | 171 | 4.0 | 15.0 | 0.00 | 0.00 | 0.00 | 66 | 1001.4 |
| 20260505023003 | 76 | 239 | 3.0 | 18.0 | 0.00 | 0.00 | 0.00 | 66 | 1001.6 |
| 20260505022503 | 76 | 187 | 3.0 | 18.0 | 0.00 | 0.00 | 0.00 | 66 | 1001.3 |
| 20260505022003 | 76 | 168 | 4.0 | 18.0 | 0.00 | 0.00 | 0.00 | 66 | 1001.3 |
| 20260505021524 | 76 | 355 | 4.0 | 23.0 | 0.00 | 0.00 | 0.00 | 65 | 1001.4 |
| 20260505021003 | 76 | 126 | 4.0 | 23.0 | 0.00 | 0.00 | 0.00 | 65 | 1001.1 |
| 20260505020503 | 76 | 200 | 5.0 | 23.0 | 0.00 | 0.00 | 0.00 | 65 | 1001.7 |
| 20260505020003 | 76 | 209 | 5.0 | 16.0 | 0.00 | 0.00 | 0.00 | 65 | 1001.5 |
| 20260505015503 | 76 | 186 | 4.0 | 16.0 | 0.00 | 0.00 | 0.00 | 65 | 1001.5 |
| 20260505015003 | 76 | 141 | 4.0 | 16.0 | 0.00 | 0.00 | 0.00 | 65 | 1001.2 |
| 20260505014503 | 77 | 234 | 3.0 | 16.0 | 0.00 | 0.00 | 0.00 | 64 | 1001.5 |
| 20260505014003 | 77 | 147 | 3.0 | 16.0 | 0.00 | 0.00 | 0.00 | 64 | 1001.2 |
| 20260505013503 | 77 | 189 | 4.0 | 16.0 | 0.00 | 0.00 | 0.00 | 64 | 1001.1 |
| 20260505013003 | 77 | 182 | 4.0 | 13.0 | 0.00 | 0.00 | 0.00 | 63 | 1001.5 |
| 20260505012503 | 77 | 181 | 4.0 | 13.0 | 0.00 | 0.00 | 0.00 | 63 | 1001.3 |
| 20260505012003 | 77 | 162 | 3.0 | 15.0 | 0.00 | 0.00 | 0.00 | 63 | 1001.6 |
| 20260505011503 | 77 | 176 | 4.0 | 15.0 | 0.00 | 0.00 | 0.00 | 63 | 1001.6 |
| 20260505011003 | 77 | 148 | 4.0 | 15.0 | 0.00 | 0.00 | 0.00 | 62 | 1001.8 |
| 20260505010503 | 78 | 198 | 4.0 | 13.0 | 0.00 | 0.00 | 0.00 | 62 | 1002.1 |
| 20260505010003 | 78 | 166 | 3.0 | 9.0 | 0.00 | 0.00 | 0.00 | 62 | 1001.4 |
| 20260505005503 | 78 | 159 | 2.0 | 16.0 | 0.00 | 0.00 | 0.00 | 62 | 1001.6 |
| 20260505005004 | 78 | 210 | 4.0 | 16.0 | 0.00 | 0.00 | 0.00 | 61 | 1001.8 |
| 20260505004502 | 78 | 333 | 1.0 | 11.0 | 0.00 | 0.00 | 0.00 | 61 | 1001.8 |
| 20260505004003 | 79 | 170 | 6.0 | 19.0 | 0.00 | 0.00 | 0.00 | 60 | 1002.0 |
| 20260505003524 | 79 | 125 | 1.0 | 19.0 | 0.00 | 0.00 | 0.00 | 60 | 1002.0 |
| 20260505003003 | 79 | 233 | 3.0 | 16.0 | 0.00 | 0.00 | 0.00 | 60 | 1002.1 |
| 20260505002503 | 79 | 165 | 5.0 | 15.0 | 0.00 | 0.00 | 0.00 | 59 | 1001.6 |
| 20260505002003 | 79 | 182 | 2.0 | 14.0 | 0.00 | 0.00 | 0.00 | 59 | 1001.9 |
| 20260505001502 | 79 | 250 | 4.0 | 14.0 | 0.00 | 0.00 | 0.00 | 58 | 1002.2 |
| 20260505001003 | 80 | 214 | 5.0 | 23.0 | 0.00 | 0.00 | 0.00 | 58 | 1002.1 |
| 20260505000503 | 80 | 201 | 4.0 | 23.0 | 0.00 | 0.00 | 0.00 | 58 | 1002.1 |
| 20260505000024 | 80 | 143 | 2.0 | 17.0 | 0.00 | 0.00 | 0.00 | 57 | 1001.9 |
| 20260504235503 | 80 | 167 | 5.0 | 17.0 | 0.00 | 0.00 | 0.00 | 57 | 1001.8 |
| 20260504235003 | 80 | 185 | 3.0 | 11.0 | 0.00 | 0.00 | 0.00 | 57 | 1002.3 |
| 20260504234503 | 80 | 167 | 4.0 | 17.0 | 0.00 | 0.00 | 0.00 | 57 | 1002.1 |
| 20260504234003 | 80 | 164 | 4.0 | 18.0 | 0.00 | 0.00 | 0.00 | 57 | 1002.2 |
| 20260504233503 | 80 | 157 | 5.0 | 18.0 | 0.00 | 0.00 | 0.00 | 57 | 1002.0 |
| 20260504233003 | 80 | 195 | 5.0 | 18.0 | 0.00 | 0.00 | 0.00 | 58 | 1002.6 |
| 20260504232502 | 80 | 16 | 2.0 | 14.0 | 0.00 | 0.00 | 0.00 | 58 | 1002.4 |
| 20260504232003 | 80 | 201 | 3.0 | 13.0 | 0.00 | 0.00 | 0.00 | 58 | 1002.4 |
| 20260504231503 | 80 | 181 | 5.0 | 13.0 | 0.00 | 0.00 | 0.00 | 58 | 1003.1 |
| 20260504231003 | 80 | 148 | 6.0 | 17.0 | 0.00 | 0.00 | 0.00 | 58 | 1002.8 |
| 20260504230524 | 80 | 89 | 3.0 | 17.0 | 0.00 | 0.00 | 0.00 | 58 | 1003.1 |
| 20260504230024 | 80 | 142 | 2.0 | 13.0 | 0.00 | 0.00 | 0.00 | 58 | 1002.8 |
| 20260504225503 | 80 | 230 | 3.0 | 13.0 | 0.00 | 0.00 | 0.00 | 59 | 1002.9 |
| 20260504225003 | 80 | 275 | 0.0 | 11.0 | 0.00 | 0.00 | 0.00 | 57 | 1003.1 |
| 20260504224502 | 80 | 137 | 3.0 | 11.0 | 0.00 | 0.00 | 0.00 | 57 | 1003.2 |
| 20260504224003 | 80 | 221 | 3.0 | 14.0 | 0.00 | 0.00 | 0.00 | 57 | 1003.2 |
| 20260504223503 | 80 | 236 | 1.0 | 14.0 | 0.00 | 0.00 | 0.00 | 58 | 1003.2 |
| 20260504223003 | 80 | 150 | 4.0 | 14.0 | 0.00 | 0.00 | 0.00 | 57 | 1002.8 |
| 20260504222503 | 80 | 287 | 2.0 | 11.0 | 0.00 | 0.00 | 0.00 | 57 | 1003.1 |
| 20260504222003 | 80 | 266 | 2.0 | 11.0 | 0.00 | 0.00 | 0.00 | 57 | 1003.3 |
| 20260504221503 | 80 | 213 | 2.0 | 8.0 | 0.00 | 0.00 | 0.00 | 56 | 1003.3 |
| 20260504221003 | 80 | 238 | 3.0 | 11.0 | 0.00 | 0.00 | 0.00 | 57 | 1003.2 |
| 20260504220503 | 80 | 221 | 2.0 | 11.0 | 0.00 | 0.00 | 0.00 | 56 | 1003.7 |
| 20260504220003 | 80 | 275 | 3.0 | 11.0 | 0.00 | 0.00 | 0.00 | 56 | 1003.0 |
| 20260504215503 | 80 | 180 | 3.0 | 11.0 | 0.00 | 0.00 | 0.00 | 55 | 1003.5 |
| 20260504215003 | 80 | 263 | 3.0 | 13.0 | 0.00 | 0.00 | 0.00 | 55 | 1003.6 |
| 20260504214503 | 80 | 248 | 2.0 | 22.0 | 0.00 | 0.00 | 0.00 | 55 | 1003.2 |
| 20260504214003 | 80 | 257 | 4.0 | 22.0 | 0.00 | 0.00 | 0.00 | 55 | 1003.7 |
| 20260504213503 | 81 | 157 | 4.0 | 13.0 | 0.00 | 0.00 | 0.00 | 54 | 1003.6 |
| 20260504213003 | 80 | 258 | 4.0 | 13.0 | 0.00 | 0.00 | 0.00 | 54 | 1004.1 |
| 20260504212503 | 80 | 254 | 4.0 | 8.0 | 0.00 | 0.00 | 0.00 | 54 | 1003.7 |
| 20260504212024 | 80 | 135 | 2.0 | 10.0 | 0.00 | 0.00 | 0.00 | 53 | 1003.8 |
| 20260504211503 | 81 | 234 | 1.0 | 16.0 | 0.00 | 0.00 | 0.00 | 53 | 1004.1 |
| 20260504211024 | 81 | 240 | 3.0 | 16.0 | 0.00 | 0.00 | 0.00 | 52 | 1003.7 |
| 20260504210503 | 81 | 131 | 2.0 | 10.0 | 0.00 | 0.00 | 0.00 | 52 | 1003.9 |
| 20260504210003 | 82 | 203 | 2.0 | 10.0 | 0.00 | 0.00 | 0.00 | 52 | 1003.8 |
| 20260504205503 | 82 | 234 | 2.0 | 10.0 | 0.00 | 0.00 | 0.00 | 53 | 1004.1 |
| 20260504205003 | 82 | 224 | 2.0 | 10.0 | 0.00 | 0.00 | 0.00 | 51 | 1004.3 |
| 20260504204503 | 82 | 115 | 2.0 | 15.0 | 0.00 | 0.00 | 0.00 | 51 | 1004.0 |
| 20260504204003 | 82 | 295 | 2.0 | 15.0 | 0.00 | 0.00 | 0.00 | 50 | 1003.8 |
| 20260504203503 | 83 | 205 | 3.0 | 10.0 | 0.00 | 0.00 | 0.00 | 50 | 1004.1 |
| 20260504203024 | 83 | 204 | 4.0 | 14.0 | 0.00 | 0.00 | 0.00 | 50 | 1004.7 |
| 20260504202524 | 83 | 57 | 3.0 | 14.0 | 0.00 | 0.00 | 0.00 | 50 | 1004.6 |
| 20260504202003 | 83 | 162 | 3.0 | 14.0 | 0.00 | 0.00 | 0.00 | 50 | 1004.6 |